Flag for Germany Weather past 2 weeks in Herrenberg, Baden-Württemberg, Germany

Now
43 °F

Passing clouds.


Feels Like: 36 °F
Forecast: 30 / 58 °F
Wind: 14 mph from Northwest

Location: Stuttgart-Echterdingen

Current Time: Apr 28, 2015 at 6:34:30 AM

Latest Report: Apr 28, 2015 at 5:50 AM


Visibility: 4 mi

Pressure: 29.77 "Hg

Humidity: 100%

Dew point: 43 °F

Location of HerrenbergLocation

Historic Weather in Herrenberg — Graph

°F

Herrenberg temperature yesterday

Maximum temperature yesterday: 66 °F (at 4:50 PM)
Minimum temperature yesterday: 50 °F (at 11:50 PM)
Average temperature yesterday: 59 °F

Past Weeks' High & Low Weather Summary

 TemperatureHumidityPressure
High77 °F (Apr 15, 3:20 PM)100% (Apr 27, 9:50 PM)30.42 "Hg (Apr 27, 9:50 PM)
Low32 °F (Apr 23, 6:20 AM)15% (Apr 15, 5:50 PM)29.53 "Hg (Apr 27, 4:50 PM)
Average54 °F58%30.06 "Hg
* Reported Apr 13 5:50 AM — Apr 28 5:20 AM, Herrenberg, Weather by CustomWeather, © 2015

Note: Actual official high and low records may vary slightly from our data, if they occured in-between our weather recording intervals... More about our weather records

Advertising

Herrenberg weather history for previous 24 hours

 ConditionsComfort  
Time TempWeatherWind HumidityBarometerVisibility
5:20 AM
Tue, Apr 28
45 °FPassing clouds.15 mph93%29.74 "Hg5 mi
4:50 AM45 °FPassing clouds.13 mph93%29.74 "Hg5 mi
4:20 AM45 °FDrizzle. Fog.10 mph93%29.71 "Hg3 mi
3:50 AM45 °FDrizzle. Low clouds.13 mph100%29.71 "Hg4 mi
3:20 AM45 °FDrizzle. Low clouds.14 mph100%29.68 "Hg4 mi
2:50 AM45 °FLow clouds.17 mph100%29.68 "Hg6 mi
2:20 AM45 °FFog.20 mph100%29.68 "Hg3 mi
1:50 AM46 °FFog.18 mph100%29.68 "Hg2 mi
1:20 AM46 °FFog.20 mph100%29.65 "Hg2 mi
12:50 AM48 °FLow clouds.17 mph94%29.65 "Hg5 mi
12:20 AM50 °FLight rain. Low clouds.16 mph94%29.65 "HgN/A
11:50 PM
Mon, Apr 27
50 °FLight rain. Passing clouds.15 mph100%29.62 "Hg4 mi
11:20 PM52 °FLight rain. Passing clouds.12 mph94%29.62 "HgN/A
10:50 PM52 °FLight rain. Passing clouds.10 mph94%29.62 "HgN/A
10:20 PM52 °FLight rain. Passing clouds.16 mph94%29.62 "HgN/A
9:50 PM52 °FLight rain. Partly cloudy.16 mph100%29.62 "HgN/A
9:20 PM54 °FThundershowers. Partly sunny.18 mph94%29.59 "Hg5 mi
8:50 PM55 °FThunderstorms. Broken clouds.17 mph94%29.59 "Hg3 mi
8:20 PM55 °FThunderstorms. Broken clouds.17 mph88%29.56 "HgN/A
7:50 PM57 °FThundershowers. Broken clouds.16 mph88%29.56 "HgN/A
7:20 PM61 °FScattered showers. Broken clouds.13 mph77%29.53 "HgN/A
6:50 PM63 °FScattered showers. Broken clouds.13 mph64%29.53 "HgN/A
6:20 PM64 °FPartly sunny.12 mph60%29.53 "HgN/A
5:50 PM64 °FScattered showers. Broken clouds.10 mph60%29.53 "HgN/A
5:20 PM64 °FBroken clouds.9 mph60%29.53 "HgN/A
4:50 PM66 °FPartly sunny.12 mph60%29.53 "HgN/A
4:20 PM64 °FPartly sunny.12 mph60%29.56 "HgN/A
3:50 PM64 °FPartly sunny.9 mph60%29.56 "HgN/A
3:20 PM64 °FBroken clouds.12 mph60%29.56 "HgN/A
2:50 PM63 °FBroken clouds.13 mph64%29.59 "HgN/A
2:20 PM64 °FBroken clouds.12 mph60%29.59 "HgN/A
1:50 PM64 °FBroken clouds.10 mph60%29.59 "HgN/A
1:20 PM64 °FBroken clouds.10 mph60%29.59 "HgN/A
12:50 PM64 °FBroken clouds.10 mph64%29.59 "HgN/A
12:20 PM63 °FBroken clouds.8 mph68%29.59 "HgN/A
11:50 AM63 °FBroken clouds.9 mph64%29.59 "HgN/A
11:20 AM63 °FScattered clouds.8 mph64%29.59 "HgN/A
10:50 AM63 °FScattered clouds.8 mph64%29.59 "HgN/A
10:20 AM61 °FBroken clouds.1 mph72%29.59 "HgN/A
9:50 AM61 °FPartly sunny.1 mph72%29.59 "HgN/A
9:20 AM59 °FSunny.1 mph77%29.59 "Hg10 mi
8:50 AM59 °FSunny.2 mph82%29.59 "Hg10 mi
8:20 AM57 °FPassing clouds.3 mph82%29.59 "HgN/A
7:50 AM59 °FSunny.2 mph77%29.59 "Hg10 mi
7:20 AM55 °FSunny.1 mph88%29.59 "Hg10 mi
6:50 AM52 °FClear.2 mph94%29.59 "Hg10 mi
6:20 AM54 °FClear.2 mph88%29.59 "Hg10 mi
Weather by CustomWeather, © 2015

See weather overviewHow to use our weather pages